Regional Weather Roundup
Issued by NWS

Home | Current Version | Previous Version | Graphics & Text | Print | Product List | Glossary On
Versions: 1 2 3 4 5 6 7 8 9 10 11 12 13 14 15 16 17 18 19 20 21 22 23 24 25 26 27 28 29 30 31 32 33 34 35 36 37 38 39 40 41 42 43 44 45 46 47 48 49 50
000
ASUS43 KIND 181509
RWRIN

WEATHER ROUNDUP FOR INDIANA
NATIONAL WEATHER SERVICE INDIANAPOLIS IN
1100 AM EDT WED OCT 18 2017

NOTE: "FAIR" INDICATES FEW OR NO CLOUDS BELOW 12,000 FEET WITH NO
SIGNIFICANT WEATHER AND/OR OBSTRUCTIONS TO VISIBILITY.

* - STATION DOES NOT REPORT WEATHER SUCH AS PRECIPITATION OR FOG.

+ - STATION NOT QUALITY CONTROLLED BY THE NATIONAL WEATHER SERVICE.
    USE DATA WITH CAUTION...ESPECIALLY DEWPOINT AND RELATIVE
    HUMIDITY OBSERVATIONS.

INZ001>003-010>013-019-020-181600-
NORTHWEST INDIANA

CITY           SKY/WX    TMP DP  RH WIND       PRES   REMARKS
GARY /AIRPORT/ SUNNY     59  39  47 S8        30.20S
KNOX *+        SUNNY     57  43  58 S9        30.23R
LA PORTE +     SUNNY     56  44  64 SW10G16   30.22S
MICHIGAN CITY+ SUNNY     57  43  58 S9        30.21S
MONTICELLO +   SUNNY     57  43  59 S9        30.25S
RENSSELAER +   SUNNY     57  39  51 S10       30.23S
VALPARAISO     SUNNY     58  44  60 S9        30.22S

$$

LMZ046-743>745-181600-
SOUTHERN LAKE MICHIGAN

STATION/POSITION TIME  TEMP    WIND        PRES    WAVE
                       AIR SEA DIR/SP/G            HT
                 (UTC) (F)     (DEG/KT/KT) (MB)    (FT)
BURNS HARBOR     1440   57     190/ 13/ 19 1022.7S
MICHIGAN CITY    1440   54     170/ 14/ 16   N/A
5NW MICH CITY    1500   56 57  200/ 12/ 16   N/A     2

$$

INZ004-005-014>016-021>024-181600-
NORTH CENTRAL INDIANA

CITY           SKY/WX    TMP DP  RH WIND       PRES   REMARKS
ELKHART        SUNNY     57  43  58 S8        30.23S
GOSHEN         SUNNY     58  42  55 SW15      30.24S
LOGANSPORT +   SUNNY     57  45  62 SW9       30.27S
PERU/GRISSOM   SUNNY     59  45  60 S10       30.26S
SOUTH BEND     SUNNY     56  44  64 SW15      30.23R
WARSAW +       SUNNY     55  43  62 SW5       30.25S

$$

INZ006>009-017-018-025>027-181600-
NORTHEAST INDIANA

CITY           SKY/WX    TMP DP  RH WIND       PRES   REMARKS
AUBURN +       SUNNY     59  43  55 SW6       30.27S
FORT WAYNE     MOSUNNY   59  44  57 S13       30.28S
HUNTINGTON +   SUNNY     58  43  57 S8        30.27S
KENDALLVILLE + SUNNY     58  44  60 SW8       30.26S

$$

INZ028-029-035-036-043>045-051>053-181600-
WEST CENTRAL INDIANA

CITY           SKY/WX    TMP DP  RH WIND       PRES   REMARKS
CRAWFORDSVL +  SUNNY     55  45  67 S9        30.27S
GREENCASTLE +  SUNNY     55  43  62 S3        30.29S
LAFAYETTE      SUNNY     57  45  64 SW8       30.25S
TERRE HAUTE    SUNNY     58  46  64 S7        30.27F

$$

INZ030>032-037>040-046>048-054>057-064-065-181600-
CENTRAL INDIANA

CITY           SKY/WX    TMP DP  RH WIND       PRES   REMARKS
ANDERSON       SUNNY     59  45  58 S12       30.29
CP ATTERBURY + SUNNY     55  46  71 CALM      30.31S
COLUMBUS       MOSUNNY   55  43  62 S6        30.31F
FISHERS *+     SUNNY     59  48  67 SW10      30.29S
FRANKFORT +    PTSUNNY   62  46  57 SW6       30.28S
GREENWOOD *+   SUNNY     61  47  61 S7        30.30S
INDIANAPOLIS   MOSUNNY   57  45  64 S8        30.29S
-EAGLE CREEK   SUNNY     56  44  64 S7        30.28S
KOKOMO +       SUNNY     58  45  62 S9        30.28S
MARION +       SUNNY     57  45  62 S8        30.29S
MT COMFORT *+  SUNNY     57  48  72 SW8       30.29S
SHELBYVILLE    SUNNY     59  43  55 S8        30.30S
ZIONSVILLE +   SUNNY     56  43  63 S9        30.29R

$$

INZ033-034-041-042-049-050-058-059-181600-
EAST CENTRAL INDIANA

CITY           SKY/WX    TMP DP  RH WIND       PRES   REMARKS
MUNCIE         SUNNY     62  43  49 S9        30.29S
RICHMOND +     SUNNY     55  43  62 S9        30.32S

$$

INZ060-061-067>069-081>083-085>088-181600-
SOUTHWEST INDIANA

CITY           SKY/WX    TMP DP  RH WIND       PRES   REMARKS
EVANSVILLE     SUNNY     59  46  62 SW6       30.31R
HUNTINGBURG +  SUNNY     58  46  64 S9        30.31
WASHINGTON +   SUNNY     60  42  51 S9        30.29S

$$

INZ062-063-066-070>080-084-089>092-181600-
SOUTH CENTRAL AND SOUTHEAST INDIANA

CITY           SKY/WX    TMP DP  RH WIND       PRES   REMARKS
BEDFORD +      SUNNY     55  45  67 S6        30.30S
BLOOMINGTON    SUNNY     59  44  57 SE5       30.30R
MADISON *+     SUNNY     55  45  67 SE3       30.34S
NORTH VERNON + SUNNY     57  45  62 S6        30.33R
SEYMOUR +      SUNNY     59  46  63 S5        30.31F

$$




USA.gov is the U.S. government's official web portal to all federal, state and local government web resources and services.